#timestamp,LO_Frequency,Hit,StdDev 
1553115615.8,286046994.9,N
1553115635.7,286046996.3,N
1553115655.5,286046992.2,N
1553115675.3,286046993.1,N
1553115695.2,286046990.6,N
1553115715.0,286046993.4,N
1553115715.9,286046993.4,N
1553115735.8,286046995.0,N
1553115755.6,286046996.7,N
1553115775.4,286046996.5,N
1553115795.3,286046998.0,N
1553115815.1,286046995.1,N
1553115835.9,286046999.2,N
1553115855.7,286046999.7,N
1553115875.5,286047002.5,N
1553115895.4,286047000.9,N
1553115915.2,286047001.8,N
1553115935.0,286047003.4,N
1553115935.9,286047003.4,N
1553115955.8,286047005.2,N
1553115975.6,286047005.1,N
1553115995.5,286047006.0,N
1553116015.3,286047005.1,N
1553116035.1,286047005.8,N
1553116055.9,286047003.7,N
1553116075.7,286047003.3,N
1553116095.5,286047003.6,N
1553116115.4,286047002.9,N
1553116135.2,286047005.3,N
1553116155.1,286047003.2,N
1553116156.0,286047003.2,N
1553116175.8,286047001.4,N
1553116195.6,286047001.5,N
1553116215.5,286047005.7,N
1553116235.3,286047006.0,N
1553116255.1,286047004.2,N
1553116275.9,286047003.2,N
1553116295.7,286047001.5,N
1553116315.6,286046999.8,N
1553116335.4,286047003.5,N
1553116355.2,286047001.3,N
1553116375.1,286047002.7,N
1553116376.0,286047002.7,N
1553116395.8,286047002.1,N
1553116415.7,286047006.4,Y
1553116435.5,286047001.6,P
1553116455.3,286047004.1,P
1553116475.2,286047007.6,P
1553116495.0,286047008.3,Y
1553116495.9,286047008.3,P
1553116515.8,286047007.3,P
1553116535.6,286047006.4,P
1553116555.4,286047003.4,N
1553116575.3,286047000.0,N
1553116595.1,286046995.1,N
1553116615.8,286046995.1,N
1553116635.7,286046994.1,N
1553116655.5,286046996.4,N
1553116675.4,286046996.0,N
1553116695.2,286046994.6,N
1553116715.0,286046992.9,N
1553116715.9,286046992.9,N
1553116735.8,286046994.1,N
1553116755.6,286046997.3,N
1553116775.4,286046996.5,N
1553116795.3,286046998.6,N
1553116815.1,286047000.8,N
1553116835.9,286046998.5,N
1553116855.7,286047003.7,N
1553116875.5,286047003.3,N
1553116895.4,286047003.5,N
1553116915.2,286047003.7,N
1553116935.1,286047003.9,N
1553116936.0,286047003.9,N
1553116955.8,286047004.9,N
1553116975.6,286047005.9,N
1553116995.5,286047000.4,N
1553117015.3,286046994.9,N
1553117035.1,286046997.1,N
1553117055.9,286046997.8,N
1553117075.7,286046997.1,N
1553117095.6,286046997.7,N
1553117115.4,286047001.0,N
1553117135.2,286047004.4,N
1553117155.1,286047002.2,N
1553117156.0,286047002.2,N
1553117175.8,286047002.3,N
1553117195.6,286047001.4,N
1553117215.5,286047000.1,N
1553117235.3,286047002.6,N
1553117255.2,286047000.1,N
1553117275.0,286046999.9,N
1553117275.9,286046999.9,N
1553117295.7,286047001.1,N
1553117315.6,286047001.2,N
1553117335.4,286047000.9,N
1553117355.3,286046998.4,N
1553117375.1,286047001.6,N
1553117376.0,286047001.6,N
1553117395.8,286047001.7,N
1553117415.7,286047002.4,N
1553117435.5,286046999.3,N
1553117455.3,286046998.6,N
1553117475.2,286046999.2,N
1553117495.0,286046998.9,N
1553117495.9,286046998.9,N
1553117515.8,286046997.7,N
1553117535.6,286046996.5,N
1553117555.4,286046998.7,N
1553117575.3,286046996.6,N
1553117595.1,286046995.2,N
1553117615.8,286046993.8,Y
1553117635.7,286046994.0,P
1553117655.5,286046996.2,N
1553117675.4,286046991.9,P
1553117695.2,286046992.9,N
1553117715.0,286046988.5,Y
1553117715.9,286046988.5,P
1553117735.8,286046997.8,N
1553117755.6,286046996.7,N
1553117775.5,286046998.1,N
1553117795.3,286047003.9,N
1553117815.1,286047001.3,N
1553117835.9,286047005.8,N
1553117855.7,286047003.6,N
1553117875.5,286047002.6,N
1553117895.4,286047000.5,N
1553117915.2,286047002.7,N
1553117935.0,286046999.7,N
1553117935.9,286046999.7,N
1553117955.8,286047001.7,N
1553117975.6,286047003.4,N
1553117995.5,286047009.4,N
1553118015.3,286047010.2,N
1553118035.1,286047009.6,N
1553118055.9,286047008.1,N
1553118075.7,286047007.7,N
1553118095.5,286047006.3,N
1553118115.4,286047007.1,N
1553118135.2,286047001.6,N
1553118155.1,286047000.3,N
1553118156.0,286047000.3,N
1553118175.8,286047002.4,N
1553118195.6,286047004.2,N
1553118215.5,286047004.5,N
1553118235.3,286047007.6,N
1553118255.1,286047001.5,N
1553118275.9,286047004.3,N
1553118295.7,286047001.6,N
1553118315.6,286047002.7,N
1553118335.4,286046999.7,N
1553118355.2,286047001.9,N
1553118375.1,286046998.6,N
1553118376.0,286046998.6,N
1553118395.8,286047000.6,N
1553118415.6,286046998.3,N
1553118435.5,286046999.2,N
1553118455.3,286046997.3,N
1553118475.2,286046997.4,N
1553118495.9,286046995.5,N
1553118515.7,286046995.2,N
1553118535.6,286046996.3,N
1553118555.4,286046995.2,N
1553118575.2,286046994.1,N
1553118595.1,286046994.5,N
1553118596.0,286046994.5,N
1553118615.8,286046993.6,N
1553118635.7,286046992.8,N
1553118655.5,286046989.7,N
1553118675.3,286046992.0,N
1553118695.2,286046995.5,N
1553118715.9,286046996.5,N
1553118735.7,286046999.0,N
1553118755.6,286047000.3,N
1553118775.4,286047000.5,N
1553118795.2,286047002.8,N
1553118815.1,286046998.5,N
1553118816.0,286046998.5,N
1553118835.8,286046998.0,N
1553118855.7,286046993.3,N
1553118875.5,286046991.7,N
1553118895.3,286046994.3,N
1553118915.2,286046994.9,N
1553118935.0,286046994.9,N
1553118935.9,286046994.9,N
1553118955.8,286046997.7,N
1553118975.6,286046999.2,N
1553118995.4,286047001.4,N
1553119015.3,286046998.3,N
1553119035.1,286046995.4,N
1553119055.8,286047011.9,Y
1553119075.7,286046998.3,P
1553119095.5,286047002.6,N
1553119115.4,286047000.4,N
1553119135.2,286047001.5,N
1553119155.0,286047000.2,N
1553119155.9,286047000.2,N
1553119175.8,286047000.0,N
1553119195.6,286046999.8,N
